Timeline UpdatesTrip UpdatesNews PostsPvt PostsTravel TipsAdmin PostsConv PostsFollowed PostsChat RequestsBlog PostsPNR Posts

Disclaimer
Search
 
 
Wed Sep 3, 2014 07:42:31 ISTHomeTrainsΣChainsAtlasPNRForumGalleryNewsFAQTripsMembersLoginFeedback
No Recent News for this Train
Other Trains in the News **new
Latest...
One Sleeper and unreserved coach for Mumbai is attached from Nandurbar. These coaches are attached to 59442 Ahmedabad Mumbai passenger at Surat.
Mon Apr 18, 2011 (09:18PM)
⇐ Return Journey: Train# 59441-Slip

59076-Slip/Bhusaval -Mumbai Passenger Slip(Via Surat)

NO Time-Table Change.
Jul 01 2013 (11:06PM)
Change Departure Station:
Change Arrival Station:
Post a Train Travel TipPost a Train Travel Tip **new
Post a Comment/Question/Picture/VideoPost a Comment/Question/Picture/Video
Pantry/Catering
???
Loco/Rake Reversals
ST/Surat (4);
RSA - Rake Sharing
Rake/Coach Composition
Loco
News    PNR    Forum    Time-Table    Availability    Fare Chart    Map    Arr/Dep History    Trips    Gallery    ΣChains    X/O    Timeline    
Travel Time: 1h 21m    5 halts    Distance: 58 km    Avg Speed: 42 km/hr
Type: Passenger
Zone: WR/Western
Departs @ 14:30
Platform# ???
SMTWTFS
Nandurbar/NDB 
Arrives @ 15:51
Platform# ???
SMTWTFS
Navapur/NWU 

5 halts. 6 intermediate Stations between Nandurbar and Navapur

Show ALL intermediate Stations  

#CodeStation NameX/OArrivesAvgDepartsAvgHaltPFDay#KmSpeedElevZoneAddress
1BSLBhusaval Junction (8)  -08:45---1-174.158208mCRBhusaval 425201, Maharashtra
2BDIBhadli (2)  08:58-09:00-2m--1-161.530211mCRBhadli, Maharashtra
3JLJalgaon Junction (4)  09:23-09:25-2m21-150.037213mCRJalgaon 425001, Maharashtra
4PLDPaldhi (2)  09:43-09:45-2m--1-138.953208mWRPaldhi, Maharashtra
5CHLKChavalkhedeX  09:58-10:00-2m--1-127.427196mWRState Highway 185, Maharashtra
6DXGDharangaon (2)  10:16-10:18-2m--1-120.257217mWRDharangaon, Maharashtra
7BHNEBhone (2)  10:26-10:28-2m--1-112.650196mWRState Highway 185, Maharashtra
8TKHETakarkhede (1)  10:35-10:37-2m11-106.843203mWRState Highway 6, Maharashtra
9ANAmalner (2)  10:53-10:55-2m11-95.340188mWRAmalner, Maharashtra
10BRTKBhortex  11:07-11:09-2m--1-87.353180mWRVadhoda, Maharashtra
11PDPPadse  11:18-11:20-2m--1-79.448181mWRDhule, Maharashtra
12BEWBetavad (1)  11:27-11:29-2m11-73.858178mWRState Highway 6, Maharashtra
13NDNNardana (1)  11:36-11:38-2m11-67.042184mWRNardana, Maharashtra
14HOLHol (1)  11:45-11:47-2m11-62.163185mWRState Highway 6, Maharashtra
15SNKSindkheda (1)X  11:55-11:57-2m11-53.843178mWRState Highway 11, Maharashtra
16SNSLSonshelu (1)  12:06-12:08-2m11-47.348185mWRMSH1, Maharashtra
17VKHVikhran (1)X  12:14-12:16-2m11-42.533176mWRMSH1, Maharashtra
18DDEDondaicha (2)  12:31-12:33-2m11-34.455163mWRDondaicha, Maharashtra
19RNLRanala (1)X  12:46-12:48-2m11-22.433164mWRState Highway 6, Maharashtra
20TISITisi (1)X  13:05-13:07-2m11-12.920185mWRState Highway 7, Maharashtra
21NDB»Nandurbar (3)»X  13:45-14:30-45m--10.060203mWRNandurbar, Maharashtra
22DWDDhekwad (1)O  14:39-14:41-2m119.048209mWRState Highway 5, Maharashtra
23KBHKhandbara (1)X  14:58-15:00-2m1122.653198mWRKhandbara, Maharashtra
24KHTGKhatgaon (1)  15:10-15:12-2m1131.453178mWRState Highway 5, Maharashtra
25CPDChinchpada (1)  15:23-15:25-2m1141.248178mWRGangapur, Maharashtra
26KFFKolda (1)X  15:33-15:35-2m1147.539160mWRGangapur, Maharashtra
27NWU•Navapur (2)•  15:51-15:53-2m--157.955124mWRNavapur, Gujarat
28BBAIBhadbhunja (1)  16:05-16:07-2m1169.025126mWRGujarat 394375 ?, Gujarat
29LKKDLakkad Kot (1)  16:19-16:21-2m1173.936122mWRGujarat 394375 ?, Gujarat
30USDUkai Songadh (2)  16:33-16:35-2m1181.239139mWRSongadh, Gujarat
31DSDDosvada (1)  16:42-16:44-2m1185.717121mWRNational Highway 6, Gujarat
32KKRDKikakui Road (1)O  16:53-16:55-2m1188.316114mWRGujarat 394650 ?, Gujarat
33VYAVyara (2)  17:38-17:40-2m1199.84390mWRVyara, Gujarat
34LTVLotarva (1)  17:49-17:51-2m11106.34657mWRSankr Main Rd, Gujarat
35KRAIKaher (1)X  17:55-17:57-2m11109.44055mWRKaher, Gujarat
36MIDMadhi (1)  18:05-18:07-2m11114.83245mWRMadhi, Gujarat
37MGRLMangrolla (1)  18:17-18:19-2m11120.13336mWRPipariya, Gujarat
38TBVTimbarva (1)  18:24-18:26-2m11122.83435mWRTimberva, Gujarat
39BIYBardoli (2)  18:38-18:40-2m--1129.62135mWRNear Bardoli Sugar Factory Bardoli, Gujarat
40GGARGangadhara (1)X  18:58-19:00-2m11135.82027mWRKareli, Gujarat
41CHMChalthan (1)  19:29-19:31-2m11145.35023mWRKadodra, Gujarat
42NOLNiyol (1)  19:37-19:39-2m11150.32818mWRSurat, Gujarat
43UDNUdhna Junction (3)XOO  19:53-19:55-2m21156.81616mWRUdhna 394210, Gujarat
44STSurat (4)XO20:10-21:30-80m41160.83819mWRSurat 395001, Gujarat
45BHETBhestan (2)X  21:44-21:46-2m21169.64913mWRSurat, Gujarat
46SCHSachin (3)X  21:53-21:55-2m--1175.36611mWRKansad Road Sachin, Gujarat
47MRLMaroli (3)  22:01-22:03-2m--1182.06315mWRMaroli, Gujarat
48NVSNavsari (3)X  22:11-22:13-2m--1190.44614mWRNavsari, Gujarat
49VDHVedchha (3)X  22:24-22:26-2m--1198.95113mWRNavsari, Gujarat
50ACLAncheli (2)X  22:30-22:32-2m--1202.24620mWRNavsari, Gujarat
51AMLAmalsad (3)  22:37-22:39-2m--1206.05612mWRAmalsad, Gujarat
52BIMBilimora Junction (4)  22:45-22:47-2m--1211.66811mWRBilimora, Gujarat
53DGIDungri (3)X  22:55-22:57-2m--1220.62320mWRNH 8, Gujarat
54BLValsad (3)X  23:20-23:30-10m31229.56415mWRValsad, Gujarat
55PADPardi (3)X  23:40-23:42-2m--1240.26019mWRValsad, Gujarat
56UVDUdvada (3)  23:48-23:50-2m--1246.25218mWRUdvada, Gujarat
57VAPIVapi (3)X  00:01-00:02-1m--2255.84827mWRVapi, Gujarat
58KEBKarambeli (2)X  00:10-00:11-1m--2262.24829mWRNational Highway 8, Gujarat
59BLDBhilad (3)X  00:17-00:19-2m--2267.06933mWRBhilad, Gujarat
60SJNSanjan (3)X  00:29-00:31-2m--2278.65422mWRSanjan, Gujarat
61UBRUmbargam Road (3)X  00:37-00:39-2m--2284.06130mWRUmbergaon, Gujarat
62GVDGholvad (4)X  00:48-00:50-2m--2293.24214mWRGholvad, Maharashtra
63DRDDahanu Road (5)X  01:06-01:08-2m--2304.35712mWRDahanu, Maharashtra
64VGNVangaon (3)X  01:21-01:23-2m--2316.66311mWRDist. Palghar, Maharashtra
65BORBoisar (3)X  01:32-01:34-2m32326.04817mWRBoisar Tel.no-02525-266626, Maharashtra
66PLGPalghar (3)  01:48-01:50-2m--2337.34619mWRPalghar, Maharashtra
67KLVKelve Road (3)  02:01-02:03-2m--2345.74310mWRDist. Palghar, Maharashtra
68SAHSaphale (2)O  02:12-02:14-2m22352.1348mWRDist. Palghar, Maharashtra
69VRVirar (8)  02:43-02:45-2m--2368.4286mWRDist. Palghar, Maharashtra
70BSRVasai Road (7)  03:03-03:05-2m52376.8587mWRVasai 401202, Maharashtra
71BVIMumbai Borivali (8)  03:23-03:25-2m52394.23719mWRMumbai - 400092, Maharashtra
72DDRMumbai Dadar Western (6)  04:03-04:05-2m52418.0126mWRMumbai, Maharashtra
73BCTMumbai Central (9)  04:35--52423.9-3mWRMumbai 400008, Maharashtra
Scroll to Top
Scroll to Bottom